Weather History for Cody, WY

Change the Weather History Date:

Sunday, November 11, 2012

  Actual Average Record
Temperature  
Mean Temperature 13 °F -  
Max Temperature 28 °F 46 °F 69 °F (1934)
Min Temperature 0 °F 25 °F -4 °F (1919)
Degree Days  
Heating Degree Days 52    
Moisture  
Dew Point 6 °F    
Average Humidity 73    
Maximum Humidity 100    
Minimum Humidity 43    
Precipitation  
Precipitation 0.01 in - - ()
Sea Level Pressure  
Sea Level Pressure 29.97 in    
Wind  
Wind Speed 7 mph (WNW)    
Max Wind Speed 25 mph    
Max Gust Speed 38 mph    
Visibility 10 miles    
Events      
Averages and records for this station are not official NWS values.
T = Trace of Precipitation, MM = Missing Value Source: NWS Daily Summary

Daily Weather History Graph

Daily Weather History Graph

Search for Another Location

Airport:

Trip Planner

Search our weather history database for the weather conditions in past years. The results will help you decide how hot, cold, wet, or windy it might be!

Date:

Astronomy

Nov. 11, 2012 Rise Set
Actual Time 7:07 AM MST 4:52 PM MST
Civil Twilight 6:36 AM MST 5:23 PM MST
Nautical Twilight 6:01 AM MST 5:58 PM MST
Astronomical Twilight 5:27 AM MST 6:32 PM MST
Moon 4:20 AM MST (11/11) 3:21 PM MST (11/11)
Length of Visible Light 10h 46m
Length of Day
9h 44m
Waning Crescent, 7% of the Moon is Illuminated
Nov 11
Waning Crescent
Nov 13
New
Nov 20
First Quarter
Nov 28
Full
Dec 6
Last Quarter

Hourly Weather History & Observations

Time (MST) Temp. Windchill Dew Point Humidity Pressure Visibility Wind Dir Wind Speed Gust Speed Precip Events Conditions
12:15 AM 1.4 °F -8.3 °F 1.4 °F 100% 29.89 in 10.0 mi SSW 4.6 mph - N/A   Clear
12:35 AM 1.4 °F -6.2 °F -0.4 °F 92% 29.89 in 10.0 mi SW 3.5 mph - N/A   Clear
12:55 AM 1.4 °F - 1.4 °F 100% 29.88 in 10.0 mi Calm Calm - N/A   Clear
1:15 AM 1.4 °F - -0.4 °F 92% 29.88 in 10.0 mi Calm Calm - N/A   Clear
1:35 AM 1.4 °F - -0.4 °F 92% 29.88 in 10.0 mi Calm Calm - N/A   Clear
1:55 AM 3.2 °F -13.1 °F -0.4 °F 85% 29.87 in 10.0 mi SSW 11.5 mph - N/A   Clear
2:15 AM 6.8 °F -4.8 °F 3.2 °F 85% 29.88 in 10.0 mi SSW 6.9 mph - N/A   Clear
2:35 AM 5.0 °F -4.1 °F 1.4 °F 85% 29.88 in 10.0 mi SSW 4.6 mph - N/A   Clear
2:55 AM 5.0 °F -2.1 °F 3.2 °F 92% 29.88 in 10.0 mi NNW 3.5 mph - N/A   Clear
3:15 AM -0.4 °F - -5.8 °F 78% 29.88 in 10.0 mi Calm Calm - N/A   Clear
3:35 AM -0.4 °F - -0.4 °F 100% 29.88 in 10.0 mi Calm Calm - N/A   Clear
3:55 AM -0.4 °F - -2.2 °F 92% 29.88 in 10.0 mi Calm Calm - N/A   Clear
4:35 AM 1.4 °F - -0.4 °F 92% 29.89 in 10.0 mi Calm Calm - N/A   Clear
4:55 AM -0.4 °F - -2.2 °F 92% 29.89 in 10.0 mi Calm Calm - N/A   Clear
5:15 AM 1.4 °F -8.3 °F -0.4 °F 92% 29.89 in 10.0 mi SW 4.6 mph - N/A   Clear
5:35 AM -0.4 °F - -2.2 °F 92% 29.89 in 10.0 mi Calm Calm - N/A   Clear
5:55 AM -0.4 °F -8.3 °F -0.4 °F 100% 29.89 in 10.0 mi SE 3.5 mph - N/A   Clear
6:35 AM -0.4 °F - -0.4 °F 100% 29.90 in 10.0 mi Calm Calm - N/A   Clear
6:55 AM -0.4 °F - -2.2 °F 92% 29.90 in 10.0 mi Calm Calm - N/A   Clear
7:15 AM -0.4 °F - -4.0 °F 85% 29.91 in 10.0 mi Calm Calm - N/A   Clear
7:35 AM -0.4 °F -13.4 °F -2.2 °F 92% 29.92 in 10.0 mi NNE 6.9 mph - N/A   Clear
7:55 AM -0.4 °F -10.4 °F -2.2 °F 92% 29.93 in 10.0 mi NE 4.6 mph - N/A   Clear
8:35 AM 1.4 °F -8.3 °F -0.4 °F 92% 29.94 in 10.0 mi NE 4.6 mph - N/A   Clear
8:55 AM 1.4 °F - 1.4 °F 100% 29.94 in 10.0 mi Calm Calm - N/A   Clear
9:15 AM 3.2 °F - 3.2 °F 100% 29.94 in 10.0 mi Calm Calm - N/A   Clear
9:35 AM 5.0 °F -2.1 °F 3.2 °F 92% 29.94 in 10.0 mi North 3.5 mph - N/A   Clear
10:15 AM 6.8 °F -4.8 °F 5.0 °F 92% 29.94 in 10.0 mi North 6.9 mph - N/A   Clear
10:35 AM 10.4 °F 4.0 °F 8.6 °F 92% 29.95 in 10.0 mi North 3.5 mph - N/A   Clear
11:15 AM 12.2 °F 4.3 °F 10.4 °F 92% 29.95 in 10.0 mi NE 4.6 mph - N/A   Partly Cloudy
11:35 AM 19.4 °F 9.5 °F 14.0 °F 80% 29.94 in 10.0 mi NNW 8.1 mph 19.6 mph N/A   Partly Cloudy
11:55 AM 19.4 °F 10.4 °F 15.8 °F 86% 29.94 in 10.0 mi North 6.9 mph - N/A   Clear
12:15 PM 19.4 °F 8.6 °F 10.4 °F 68% 29.95 in 10.0 mi North 9.2 mph - N/A   Scattered Clouds
12:35 PM 19.4 °F 10.4 °F 12.2 °F 74% 29.95 in 10.0 mi North 6.9 mph - N/A   Partly Cloudy
12:55 PM 17.6 °F 6.4 °F 12.2 °F 79% 29.96 in 10.0 mi NNE 9.2 mph 16.1 mph N/A   Partly Cloudy
1:35 PM 17.6 °F 7.3 °F 10.4 °F 73% 29.98 in 10.0 mi NNE 8.1 mph - N/A   Partly Cloudy
1:55 PM 17.6 °F 6.4 °F 12.2 °F 79% 29.98 in 10.0 mi NNE 9.2 mph - N/A   Partly Cloudy
2:15 PM 17.6 °F 7.3 °F 10.4 °F 73% 29.99 in 10.0 mi NE 8.1 mph - N/A   Partly Cloudy
2:35 PM 19.4 °F 10.4 °F 14.0 °F 80% 29.99 in 10.0 mi NE 6.9 mph - N/A   Partly Cloudy
2:55 PM 19.4 °F 11.5 °F 12.2 °F 74% 29.99 in 10.0 mi NW 5.8 mph - N/A   Clear
3:15 PM 24.8 °F 16.9 °F 10.4 °F 54% 29.99 in 10.0 mi NW 6.9 mph - N/A   Clear
3:35 PM 23.0 °F 17.0 °F 10.4 °F 59% 30.00 in 10.0 mi West 4.6 mph - N/A   Clear
3:55 PM 24.8 °F 9.6 °F 10.4 °F 54% 30.00 in 10.0 mi WSW 23.0 mph 28.8 mph N/A   Clear
4:15 PM 24.8 °F 10.3 °F 8.6 °F 50% 30.01 in 10.0 mi West 20.7 mph 29.9 mph N/A   Clear
4:35 PM 24.8 °F 13.4 °F 8.6 °F 50% 30.01 in 10.0 mi WSW 12.7 mph 32.2 mph N/A   Clear
4:55 PM 24.8 °F 10.7 °F 8.6 °F 50% 30.02 in 10.0 mi WSW 19.6 mph 34.5 mph N/A   Clear
5:15 PM 24.8 °F 11.5 °F 8.6 °F 50% 30.02 in 10.0 mi WSW 17.3 mph 29.9 mph N/A   Clear
5:35 PM 24.8 °F 11.5 °F 8.6 °F 50% 30.03 in 10.0 mi West 17.3 mph 32.2 mph N/A   Clear
5:55 PM 24.8 °F 10.0 °F 8.6 °F 50% 30.04 in 10.0 mi West 21.9 mph 28.8 mph N/A   Clear
6:15 PM 24.8 °F 10.3 °F 6.8 °F 46% 30.04 in 10.0 mi WSW 20.7 mph 29.9 mph N/A   Clear
6:35 PM 24.8 °F 12.4 °F 6.8 °F 46% 30.05 in 10.0 mi West 15.0 mph 24.2 mph N/A   Clear
6:55 PM 24.8 °F 12.4 °F 8.6 °F 50% 30.05 in 10.0 mi West 15.0 mph 26.5 mph N/A   Clear
7:15 PM 24.8 °F 10.7 °F 6.8 °F 46% 30.05 in 10.0 mi WSW 19.6 mph 28.8 mph N/A   Clear
7:35 PM 24.8 °F 10.0 °F 8.6 °F 50% 30.05 in 10.0 mi WSW 21.9 mph 33.4 mph N/A   Clear
7:55 PM 24.8 °F 11.1 °F 8.6 °F 50% 30.06 in 10.0 mi West 18.4 mph 29.9 mph N/A   Clear
8:15 PM 24.8 °F 11.5 °F 8.6 °F 50% 30.07 in 10.0 mi WSW 17.3 mph 33.4 mph N/A   Clear
8:35 PM 24.8 °F 9.3 °F 8.6 °F 50% 30.07 in 10.0 mi WSW 24.2 mph 36.8 mph N/A   Clear
8:55 PM 24.8 °F 10.7 °F 6.8 °F 46% 30.08 in 10.0 mi WSW 19.6 mph 31.1 mph N/A   Clear
9:35 PM 24.8 °F 10.7 °F 8.6 °F 50% 30.09 in 10.0 mi West 19.6 mph 31.1 mph N/A   Clear
9:55 PM 24.8 °F 11.9 °F 8.6 °F 50% 30.09 in 10.0 mi West 16.1 mph 34.5 mph N/A   Clear
10:15 PM 24.8 °F 12.9 °F 6.8 °F 46% 30.09 in 10.0 mi West 13.8 mph 32.2 mph N/A   Clear
10:35 PM 24.8 °F 12.4 °F 8.6 °F 50% 30.09 in 10.0 mi West 15.0 mph 32.2 mph 0.01 in   Clear
10:55 PM 26.6 °F 13.8 °F 8.6 °F 47% 30.08 in 10.0 mi West 17.3 mph 36.8 mph 0.01 in   Clear
11:15 PM 26.6 °F 11.4 °F 8.6 °F 47% 30.08 in 10.0 mi West 25.3 mph 38.0 mph N/A   Clear
11:35 PM 26.6 °F 14.7 °F 8.6 °F 47% 30.09 in 10.0 mi WSW 15.0 mph 33.4 mph N/A   Clear
11:55 PM 28.4 °F 16.6 °F 8.6 °F 43% 30.08 in 10.0 mi West 16.1 mph 34.5 mph N/A   Clear